Regional Weather Roundup
Issued by NWS Portland, ME

Current Version | Previous Version | Text Only | Print | Product List | Glossary Off
Versions: 1 2 3 4 5 6 7 8 9 10 11 12 13 14 15 16 17 18 19 20 21 22 23 24 25 26 27 28 29 30 31 32 33 34 35 36 37 38 39 40 41 42 43 44 45 46 47 48 49 50
000 ASUS41 KGYX 190110 RWRGYX WEATHER ROUNDUP FOR MAINE AND NEW HAMPSHIRE NATIONAL WEATHER SERVICE GRAY ME 900 PM EDT MON SEP 18 2017 MEZ002-005-006-010-012-015-018-020-021-024-026-027-029-190200- MAINE CITY SKY/WX TMP DP RH WIND PRES REMARKS PORTLAND CLOUDY 60 59 96 E8 30.22S FOG SANFORD CLOUDY 62 62 100 E5 30.21S BAR HARBOR FOG 57 57 100 E3 30.24S VSB 3/4 WISCASSET CLOUDY 61 59 93 E3 30.23S ROCKLAND CLOUDY 59 58 96 NE5 30.23S FRYEBURG CLOUDY 65 63 93 SE8 30.21R LEWISTONAUBURN CLOUDY 62 61 96 SE7 30.22R FOG AUGUSTA CLOUDY 61 60 97 SE6 30.22S WATERVILLE CLOUDY 63 62 97 S3 30.19S BANGOR CLOUDY 62 59 90 S5 30.23S GREENVILLE N/A 60 60 100 SE6 30.21R MILLINOCKET CLOUDY 63 61 93 VRB3 30.23R HOULTON CLOUDY 62 61 96 S9 30.21R PRESQUE ISLE CLOUDY 65 62 90 SE5 30.21R FRENCHVILLE CLOUDY 61 60 97 SE6 30.19F FOG CARIBOU CLOUDY 64 61 90 SE6 30.19S $$ NHZ002-005-008-009-011-012-014-190200- NEW HAMPSHIRE CITY SKY/WX TMP DP RH WIND PRES REMARKS PORTSMOUTH DRIZZLE 63 63 99 NE7 30.18S FOG ROCHESTER CLOUDY 63 60 90 E6 30.20R NASHUA CLOUDY 67 65 93 E7 30.19R MANCHESTER CLOUDY 66 64 93 E6 30.17S CONCORD CLOUDY 66 63 90 SE6 30.19R LACONIA CLOUDY 65 64 97 CALM 30.20S PLYMOUTH CLOUDY 67 62 84 CALM 30.19S BERLIN PTCLDY 61 58 90 CALM 30.19R WHITEFIELD CLOUDY 66 60 81 VRB3 30.17R JAFFREY CLOUDY 67 65 93 N3 30.19S KEENE MOCLDY 62 60 93 CALM 30.18R LEBANON CLOUDY 65 61 87 CALM 30.18R MT WASHINGTON MOCLDY 54 41 62 E10 N/A $$ VTZ005-007-008-190200- VERMONT CITY SKY/WX TMP DP RH WIND PRES REMARKS ST JOHNSBURY N/A 69 64 84 MISG 30.14R MONTPELIER CLEAR 66 62 87 S10 30.20R BURLINGTON PTCLDY 72 64 76 S5 30.10R $$ MAZ007-012-024-CTZ003-RIZ002-NYZ038-NYZ072-190200- SOUTHERN NEW ENGLAND AND NY CITY SKY/WX TMP DP RH WIND PRES REMARKS BOSTON DRIZZLE 65 64 97 NE9 30.19R FOG WORCESTER LGT RAIN 64 62 93 E5 30.19S FOG NANTUCKET FOG 64 64 100 NE12 30.12R VSB 1 PROVIDENCE CLOUDY 68 66 93 NE10 30.15S HARTFORD PTCLDY 68 64 87 N3 30.15R ALBANY PTCLDY 71 61 70 S8 30.13R NEW YORK CITY CLOUDY 72 68 87 NE9 30.09S $$ ANZ081-ANZ082-ANZ150-NHZ014-MEZ023>029-190200- COASTAL MARINE OBSERVATIONS STATION/POSITION TIME TEMP WIND PRES WAVE AIR SEA DIR/SP/G HT/PER (UTC) (F) (DEG/KT/KT) (MB) (FT/S) MOUNT DESERT ROC 0100 56 40/ 9/ 9 1023.7S MATINICUS ROCK 0100 57 70/ 9/ 9 1023.1S ISLE OF SHOALS 0100 62 60/ 11/ 12 1022.2R JEFFREYS LEDGE 0006 64 N/A 3/13 GEORGES BANK BUO 2350 69 68 1019.0 8/12 $$ .............KEY.............. WCI - WIND CHILL TC - TEMPERATURE IN CELSIUS VSB - VISIBILITY IN MILES HX - HEAT INDEX FAIR- INDICATES FEW OR NO CLOUDS BELOW 12,000 FT, WITH NO SIGNIFICANT WEATHER AND/OR OBSTRUCTIONS TO VISIBILITY.

USA.gov is the U.S. government's official web portal to all federal, state and local government web resources and services.